This is the latest recevied weather packets stored in our database for station/object SP9INZ-13. If no packets are shown the sender has not sent any weather packets the latest 10 day(s).
| Time | Temp. | Humidity | Pressure | Rain* | Wind** | Luminosity | Snow |
|---|---|---|---|---|---|---|---|
| 1777333429 | 10° C | 49% | 1031.1 hPa | - | - | - | - |
| 1777332472 | 10.56° C | 47% | 1030.7 hPa | - | - | - | - |
| 1777331513 | 10.56° C | 48% | 1030.6 hPa | - | - | - | - |
| 1777330555 | 9.44° C | 50% | 1031.1 hPa | - | - | - | - |
| 1777329598 | 10° C | 50% | 1030.8 hPa | - | - | - | - |
| 1777328639 | 9.44° C | 51% | 1031.2 hPa | - | - | - | - |
| 1777327681 | 10.56° C | 48% | 1030.8 hPa | - | - | - | - |
| 1777326723 | 10° C | 50% | 1031.1 hPa | - | - | - | - |
| 1777325765 | 10.56° C | 48% | 1031 hPa | - | - | - | - |
| 1777324807 | 10.56° C | 50% | 1031 hPa | - | - | - | - |
| 1777323850 | 11.11° C | 48% | 1030.9 hPa | - | - | - | - |
| 1777322891 | 12.22° C | 44% | 1030.5 hPa | - | - | - | - |
| 1777321934 | 12.22° C | 44% | 1030.4 hPa | - | - | - | - |
| 1777320975 | 11.11° C | 45% | 1031.1 hPa | - | - | - | - |
| 1777320017 | 11.67° C | 44% | 1031 hPa | - | - | - | - |
| 1777319059 | 12.22° C | 43% | 1031.1 hPa | - | - | - | - |
| 1777318101 | 12.22° C | 42% | 1031.1 hPa | - | - | - | - |
| 1777317143 | 12.78° C | 40% | 1030.9 hPa | - | - | - | - |
| 1777316185 | 13.33° C | 38% | 1030.9 hPa | - | - | - | - |
| 1777315227 | 12.78° C | 38% | 1031 hPa | - | - | - | - |
| 1777314269 | 13.89° C | 34% | 1030.8 hPa | - | - | - | - |
| 1777313312 | 13.89° C | 33% | 1030.7 hPa | - | - | - | - |
| 1777312354 | 13.89° C | 31% | 1030.9 hPa | - | - | - | - |
| 1777311396 | 15° C | 28% | 1030.6 hPa | - | - | - | - |
| 1777310438 | 15.56° C | 26% | 1030.5 hPa | - | - | - | - |
* Rain since midnight (hover to see other rain measurements)
** Current wind speed in m/s (hover to see current wind gust speed)